Location: North Runcton
(52.7000°N, 0.4333°E)
Time: 19:00:45
(UTC+00:00)

GP-B - Pass Details

Date: 19 May 2025
Orbit: 619 x 624 km, 89.8° (Epoch: 23 June)

Event Time Altitude Azimuth Distance (km) Brightness Sun altitude
Rises 23:08:26 0° 6° (N) 2,920 8.0 -16.6°
Reaches altitude 10° 23:10:48 10° 15° (NNE) 2,007 6.7 -16.7°
Maximum altitude 23:14:54 36° 83° (E) 986 4.0 -16.8°
Enters shadow 23:16:48 25° 131° (SE) 1,276 4.2 -16.8°
